Year,Month,Day,Hour,Minute,Value (Times are PST for temperature in C)
2019,04,25,00,00,4.20
2019,04,25,00,01,4.20
2019,04,25,00,02,4.10
2019,04,25,00,03,4.10
2019,04,25,00,04,4.10
2019,04,25,00,05,4.10
2019,04,25,00,06,4.00
2019,04,25,00,07,4.00
2019,04,25,00,08,4.00
2019,04,25,00,09,4.00
2019,04,25,00,10,3.90
2019,04,25,00,11,3.90
2019,04,25,00,12,3.90
2019,04,25,00,13,3.90
2019,04,25,00,14,3.90
2019,04,25,00,15,3.90
2019,04,25,00,16,3.90
2019,04,25,00,17,3.80
2019,04,25,00,18,3.80
2019,04,25,00,19,3.80
2019,04,25,00,20,3.80
2019,04,25,00,21,3.80
2019,04,25,00,22,3.80
2019,04,25,00,23,3.80
2019,04,25,00,24,3.80
2019,04,25,00,25,3.80
2019,04,25,00,26,3.80
2019,04,25,00,27,3.80
2019,04,25,00,28,3.70
2019,04,25,00,29,3.70
2019,04,25,00,30,3.70
2019,04,25,00,31,3.70
2019,04,25,00,32,3.70
2019,04,25,00,33,3.70
2019,04,25,00,34,3.70
2019,04,25,00,35,3.70
2019,04,25,00,36,3.60
2019,04,25,00,37,3.60
2019,04,25,00,38,3.60
2019,04,25,00,39,3.60
2019,04,25,00,40,3.60
2019,04,25,00,41,3.60
2019,04,25,00,42,3.60
2019,04,25,00,43,3.60
2019,04,25,00,44,3.50
2019,04,25,00,45,3.50
2019,04,25,00,46,3.40
2019,04,25,00,47,3.40
2019,04,25,00,48,3.40
2019,04,25,00,49,3.30
2019,04,25,00,50,3.30
2019,04,25,00,51,3.30
2019,04,25,00,52,3.30
2019,04,25,00,53,3.20
2019,04,25,00,54,3.20
2019,04,25,00,55,3.10
2019,04,25,00,56,3.10
2019,04,25,00,57,3.10
2019,04,25,00,58,3.10
2019,04,25,00,59,3.10
2019,04,25,01,00,3.10
2019,04,25,01,01,3.10
2019,04,25,01,02,3.10
2019,04,25,01,03,3.20
2019,04,25,01,04,3.20
2019,04,25,01,05,3.20
2019,04,25,01,06,3.20
2019,04,25,01,07,3.20
2019,04,25,01,08,3.20
2019,04,25,01,09,3.20
2019,04,25,01,10,3.20
2019,04,25,01,11,3.20
2019,04,25,01,12,3.20
2019,04,25,01,13,3.20
2019,04,25,01,14,3.20
2019,04,25,01,15,3.10
2019,04,25,01,16,3.10
2019,04,25,01,17,3.10
2019,04,25,01,18,3.10
2019,04,25,01,19,3.00
2019,04,25,01,20,3.00
2019,04,25,01,21,3.00
2019,04,25,01,22,3.00
2019,04,25,01,23,3.10
2019,04,25,01,24,3.10
2019,04,25,01,25,3.10
2019,04,25,01,26,3.10
2019,04,25,01,27,3.10
2019,04,25,01,28,3.10
2019,04,25,01,29,3.10
2019,04,25,01,30,3.20
2019,04,25,01,31,3.20
2019,04,25,01,32,3.20
2019,04,25,01,33,3.20
2019,04,25,01,34,3.20
2019,04,25,01,35,3.20
2019,04,25,01,36,3.20
2019,04,25,01,37,3.20
2019,04,25,01,38,3.20
2019,04,25,01,39,3.20
2019,04,25,01,40,3.30
2019,04,25,01,41,3.30
2019,04,25,01,42,3.30
2019,04,25,01,43,3.30
2019,04,25,01,44,3.30
2019,04,25,01,45,3.30
2019,04,25,01,46,3.20
2019,04,25,01,47,3.20
2019,04,25,01,48,3.20
2019,04,25,01,49,3.20
2019,04,25,01,50,3.20
2019,04,25,01,51,3.20
2019,04,25,01,52,3.20
2019,04,25,01,53,3.20
2019,04,25,01,54,3.20
2019,04,25,01,55,3.20
2019,04,25,01,56,3.20
2019,04,25,01,57,3.20
2019,04,25,01,58,3.20
2019,04,25,01,59,3.20
2019,04,25,02,00,3.20
2019,04,25,02,01,3.20
2019,04,25,02,02,3.20
2019,04,25,02,03,3.20
2019,04,25,02,04,3.20
2019,04,25,02,05,3.20
2019,04,25,02,06,3.20
2019,04,25,02,07,3.10
2019,04,25,02,08,3.10
2019,04,25,02,09,3.00
2019,04,25,02,10,3.00
2019,04,25,02,11,2.90
2019,04,25,02,12,2.90
2019,04,25,02,13,2.80
2019,04,25,02,14,2.80
2019,04,25,02,15,2.80
2019,04,25,02,16,2.80
2019,04,25,02,17,2.70
2019,04,25,02,18,2.70
2019,04,25,02,19,2.70
2019,04,25,02,20,2.70
2019,04,25,02,21,2.60
2019,04,25,02,22,2.60
2019,04,25,02,23,2.60
2019,04,25,02,24,2.60
2019,04,25,02,25,2.60
2019,04,25,02,26,2.60
2019,04,25,02,27,2.60
2019,04,25,02,28,2.70
2019,04,25,02,29,2.70
2019,04,25,02,30,2.70
2019,04,25,02,31,2.70
2019,04,25,02,32,2.70
2019,04,25,02,33,2.70
2019,04,25,02,34,2.70
2019,04,25,02,35,2.70
2019,04,25,02,36,2.70
2019,04,25,02,37,2.70
2019,04,25,02,38,2.70
2019,04,25,02,39,2.70
2019,04,25,02,40,2.70
2019,04,25,02,41,2.70
2019,04,25,02,42,2.70
2019,04,25,02,43,2.70
2019,04,25,02,44,2.70
2019,04,25,02,45,2.70
2019,04,25,02,46,2.60
2019,04,25,02,47,2.60
2019,04,25,02,48,2.60
2019,04,25,02,49,2.60
2019,04,25,02,50,2.60
2019,04,25,02,51,2.60
2019,04,25,02,52,2.50
2019,04,25,02,53,2.50
2019,04,25,02,54,2.50
2019,04,25,02,55,2.50
2019,04,25,02,56,2.40
2019,04,25,02,57,2.40
2019,04,25,02,58,2.40
2019,04,25,02,59,2.40
2019,04,25,03,00,2.40
2019,04,25,03,01,2.40
2019,04,25,03,02,2.40
2019,04,25,03,03,2.40
2019,04,25,03,04,2.40
2019,04,25,03,05,2.40
2019,04,25,03,06,2.40
2019,04,25,03,07,2.40
2019,04,25,03,08,2.50
2019,04,25,03,09,2.50
2019,04,25,03,10,2.50
2019,04,25,03,11,2.60
2019,04,25,03,12,2.60
2019,04,25,03,13,2.60
2019,04,25,03,14,2.60
2019,04,25,03,15,2.60
2019,04,25,03,16,2.60
2019,04,25,03,17,2.60
2019,04,25,03,18,2.60
2019,04,25,03,19,2.60
2019,04,25,03,20,2.50
2019,04,25,03,21,2.50
2019,04,25,03,22,2.50
2019,04,25,03,23,2.50
2019,04,25,03,24,2.50
2019,04,25,03,25,2.50
2019,04,25,03,26,2.40
2019,04,25,03,27,2.40
2019,04,25,03,28,2.40
2019,04,25,03,29,2.30
2019,04,25,03,30,2.30
2019,04,25,03,31,2.30
2019,04,25,03,32,2.30
2019,04,25,03,33,2.20
2019,04,25,03,34,2.20
2019,04,25,03,35,2.20
2019,04,25,03,36,2.20
2019,04,25,03,37,2.20
2019,04,25,03,38,2.10
2019,04,25,03,39,2.10
2019,04,25,03,40,2.10
2019,04,25,03,41,2.10
2019,04,25,03,42,2.10
2019,04,25,03,43,2.10
2019,04,25,03,44,2.10
2019,04,25,03,45,2.10
2019,04,25,03,46,2.10
2019,04,25,03,47,2.10
2019,04,25,03,48,2.10
2019,04,25,03,49,2.00
2019,04,25,03,50,2.00
2019,04,25,03,51,1.90
2019,04,25,03,52,1.90
2019,04,25,03,53,1.80
2019,04,25,03,54,1.80
2019,04,25,03,55,1.80
2019,04,25,03,56,1.80
2019,04,25,03,57,1.80
2019,04,25,03,58,1.80
2019,04,25,03,59,1.80
2019,04,25,04,00,1.80
2019,04,25,04,01,1.80
2019,04,25,04,02,1.80
2019,04,25,04,03,1.80
2019,04,25,04,04,1.80
2019,04,25,04,05,1.80
2019,04,25,04,06,1.80
2019,04,25,04,07,1.80
2019,04,25,04,08,1.80
2019,04,25,04,09,1.80
2019,04,25,04,10,1.80
2019,04,25,04,11,1.80
2019,04,25,04,12,1.90
2019,04,25,04,13,1.90
2019,04,25,04,14,1.90
2019,04,25,04,15,1.90
2019,04,25,04,16,1.90
2019,04,25,04,17,2.00
2019,04,25,04,18,2.00
2019,04,25,04,19,2.00
2019,04,25,04,20,2.00
2019,04,25,04,21,2.00
2019,04,25,04,22,2.00
2019,04,25,04,23,2.10
2019,04,25,04,24,2.10
2019,04,25,04,25,2.10
2019,04,25,04,26,2.10
2019,04,25,04,27,2.10
2019,04,25,04,28,2.10
2019,04,25,04,29,2.10
2019,04,25,04,30,2.10
2019,04,25,04,31,2.10
2019,04,25,04,32,2.10
2019,04,25,04,33,2.00
2019,04,25,04,34,2.00
2019,04,25,04,35,1.90
2019,04,25,04,36,1.90
2019,04,25,04,37,1.90
2019,04,25,04,38,1.90
2019,04,25,04,39,1.90
2019,04,25,04,40,1.90
2019,04,25,04,41,1.90
2019,04,25,04,42,1.90
2019,04,25,04,43,1.90
2019,04,25,04,44,1.90
2019,04,25,04,45,1.90
2019,04,25,04,46,1.90
2019,04,25,04,47,1.90
2019,04,25,04,48,1.90
2019,04,25,04,49,1.90
2019,04,25,04,50,1.80
2019,04,25,04,51,1.80
2019,04,25,04,52,1.80
2019,04,25,04,53,1.80
2019,04,25,04,54,1.80
2019,04,25,04,55,1.80
2019,04,25,04,56,1.80
2019,04,25,04,57,1.80
2019,04,25,04,58,1.80
2019,04,25,04,59,1.80
2019,04,25,05,00,1.80
2019,04,25,05,01,1.70
2019,04,25,05,02,1.70
2019,04,25,05,03,1.70
2019,04,25,05,04,1.70
2019,04,25,05,05,1.70
2019,04,25,05,06,1.70
2019,04,25,05,07,1.70
2019,04,25,05,08,1.60
2019,04,25,05,09,1.60
2019,04,25,05,10,1.60
2019,04,25,05,11,1.60
2019,04,25,05,12,1.60
2019,04,25,05,13,1.60
2019,04,25,05,14,1.50
2019,04,25,05,15,1.50
2019,04,25,05,16,1.50
2019,04,25,05,17,1.50
2019,04,25,05,18,1.40
2019,04,25,05,19,1.40
2019,04,25,05,20,1.40
2019,04,25,05,21,1.40
2019,04,25,05,22,1.40
2019,04,25,05,23,1.40
2019,04,25,05,24,1.40
2019,04,25,05,25,1.30
2019,04,25,05,26,1.30
2019,04,25,05,27,1.30
2019,04,25,05,28,1.30
2019,04,25,05,29,1.20
2019,04,25,05,30,1.20
2019,04,25,05,31,1.20
2019,04,25,05,32,1.10
2019,04,25,05,33,1.10
2019,04,25,05,34,1.10
2019,04,25,05,35,1.10
2019,04,25,05,36,1.00
2019,04,25,05,37,1.00
2019,04,25,05,38,1.00
2019,04,25,05,39,1.00
2019,04,25,05,40,1.00
2019,04,25,05,41,1.00
2019,04,25,05,42,1.10
2019,04,25,05,43,1.10
2019,04,25,05,44,1.10
2019,04,25,05,45,1.10
2019,04,25,05,46,1.20
2019,04,25,05,47,1.20
2019,04,25,05,48,1.20
2019,04,25,05,49,1.20
2019,04,25,05,50,1.20
2019,04,25,05,51,1.20
2019,04,25,05,52,1.20
2019,04,25,05,53,1.10
2019,04,25,05,54,1.20
2019,04,25,05,55,1.20
2019,04,25,05,56,1.20
2019,04,25,05,57,1.20
2019,04,25,05,58,1.20
2019,04,25,05,59,1.30
2019,04,25,06,00,1.30
2019,04,25,06,01,1.30
2019,04,25,06,02,1.30
2019,04,25,06,03,1.30
2019,04,25,06,04,1.30
2019,04,25,06,05,1.30
2019,04,25,06,06,1.20
2019,04,25,06,07,1.20
2019,04,25,06,08,1.30
2019,04,25,06,09,1.30
2019,04,25,06,10,1.30
2019,04,25,06,11,1.30
2019,04,25,06,12,1.30
2019,04,25,06,13,1.30
2019,04,25,06,14,1.30
2019,04,25,06,15,1.30
2019,04,25,06,16,1.40
2019,04,25,06,17,1.40
2019,04,25,06,18,1.40
2019,04,25,06,19,1.40
2019,04,25,06,20,1.40
2019,04,25,06,21,1.40
2019,04,25,06,22,1.40
2019,04,25,06,23,1.40
2019,04,25,06,24,1.40
2019,04,25,06,25,1.40
2019,04,25,06,26,1.40
2019,04,25,06,27,1.40
2019,04,25,06,28,1.40
2019,04,25,06,29,1.40
2019,04,25,06,30,1.40
2019,04,25,06,31,1.40
2019,04,25,06,32,1.30
2019,04,25,06,33,1.30
2019,04,25,06,34,1.30
2019,04,25,06,35,1.30
2019,04,25,06,36,1.30
2019,04,25,06,37,1.30
2019,04,25,06,38,1.30
2019,04,25,06,39,1.30
2019,04,25,06,40,1.30
2019,04,25,06,41,1.40
2019,04,25,06,42,1.40
2019,04,25,06,43,1.40
2019,04,25,06,44,1.40
2019,04,25,06,45,1.50
2019,04,25,06,46,1.50
2019,04,25,06,47,1.50
2019,04,25,06,48,1.60
2019,04,25,06,49,1.60
2019,04,25,06,50,1.60
2019,04,25,06,51,1.60
2019,04,25,06,52,1.60
2019,04,25,06,53,1.70
2019,04,25,06,54,1.70
2019,04,25,06,55,1.70
2019,04,25,06,56,1.70
2019,04,25,06,57,1.70
2019,04,25,06,58,1.80
2019,04,25,06,59,1.80
2019,04,25,07,00,1.80
2019,04,25,07,01,1.80
2019,04,25,07,02,1.80
2019,04,25,07,03,1.90
2019,04,25,07,04,1.90
2019,04,25,07,05,1.90
2019,04,25,07,06,1.90
2019,04,25,07,07,1.90
2019,04,25,07,08,2.00
2019,04,25,07,09,2.00
2019,04,25,07,10,2.00
2019,04,25,07,11,2.10
2019,04,25,07,12,2.10
2019,04,25,07,13,2.20
2019,04,25,07,14,2.20
2019,04,25,07,15,2.20
2019,04,25,07,16,2.30
2019,04,25,07,17,2.30
2019,04,25,07,18,2.30
2019,04,25,07,19,2.40
2019,04,25,07,20,2.40
2019,04,25,07,21,2.50
2019,04,25,07,22,2.50
2019,04,25,07,23,2.60
2019,04,25,07,24,2.60
2019,04,25,07,25,2.70
2019,04,25,07,26,2.70
2019,04,25,07,27,2.80
2019,04,25,07,28,2.80
2019,04,25,07,29,2.90
2019,04,25,07,30,2.90
2019,04,25,07,31,3.00
2019,04,25,07,32,3.00
2019,04,25,07,33,3.10
2019,04,25,07,34,3.10
2019,04,25,07,35,3.10
2019,04,25,07,36,3.20
2019,04,25,07,37,3.20
2019,04,25,07,38,3.30
2019,04,25,07,39,3.30
2019,04,25,07,40,3.30
2019,04,25,07,41,3.40
2019,04,25,07,42,3.40
2019,04,25,07,43,3.50
2019,04,25,07,44,3.60
2019,04,25,07,45,3.60
2019,04,25,07,46,3.70
2019,04,25,07,47,3.70
2019,04,25,07,48,3.80
2019,04,25,07,49,3.80
2019,04,25,07,50,3.90
2019,04,25,07,51,4.00
2019,04,25,07,52,4.00
2019,04,25,07,53,4.10
2019,04,25,07,54,4.10
2019,04,25,07,55,4.20
2019,04,25,07,56,4.20
2019,04,25,07,57,4.30
2019,04,25,07,58,4.30
2019,04,25,07,59,4.40
2019,04,25,08,00,4.40
2019,04,25,08,01,4.50
2019,04,25,08,02,4.50
2019,04,25,08,03,4.60
2019,04,25,08,04,4.60
2019,04,25,08,05,4.70
2019,04,25,08,06,4.70
2019,04,25,08,07,4.80
2019,04,25,08,08,4.90
2019,04,25,08,09,4.90
2019,04,25,08,10,5.00
2019,04,25,08,11,5.10
2019,04,25,08,12,5.10
2019,04,25,08,13,5.20
2019,04,25,08,14,5.30
2019,04,25,08,15,5.30
2019,04,25,08,16,5.40
2019,04,25,08,17,5.50
2019,04,25,08,18,5.60
2019,04,25,08,19,5.70
2019,04,25,08,20,5.80
2019,04,25,08,21,5.90
2019,04,25,08,22,6.00
2019,04,25,08,23,6.10
2019,04,25,08,24,6.20
2019,04,25,08,25,6.30
2019,04,25,08,26,6.40
2019,04,25,08,27,6.50
2019,04,25,08,28,6.60
2019,04,25,08,29,6.60
2019,04,25,08,30,6.70
2019,04,25,08,31,6.80
2019,04,25,08,32,6.90
2019,04,25,08,33,6.90
2019,04,25,08,34,7.00
2019,04,25,08,35,7.10
2019,04,25,08,36,7.20
2019,04,25,08,37,7.20
2019,04,25,08,38,7.30
2019,04,25,08,39,7.40
2019,04,25,08,40,7.40
2019,04,25,08,41,7.50
2019,04,25,08,42,7.50
2019,04,25,08,43,7.60
2019,04,25,08,44,7.60
2019,04,25,08,45,7.70
2019,04,25,08,46,7.70
2019,04,25,08,47,7.70
2019,04,25,08,48,7.80
2019,04,25,08,49,7.80
2019,04,25,08,50,7.90
2019,04,25,08,51,7.90
2019,04,25,08,52,7.90
2019,04,25,08,53,8.00
2019,04,25,08,54,8.00
2019,04,25,08,55,8.00
2019,04,25,08,56,8.10
2019,04,25,08,57,8.10
2019,04,25,08,58,8.20
2019,04,25,08,59,8.20
2019,04,25,09,00,8.30
2019,04,25,09,01,8.30
2019,04,25,09,02,8.40
2019,04,25,09,03,8.40
2019,04,25,09,04,8.40
2019,04,25,09,05,8.50
2019,04,25,09,06,8.60
2019,04,25,09,07,8.60
2019,04,25,09,08,8.70
2019,04,25,09,09,8.70
2019,04,25,09,10,8.70
2019,04,25,09,11,8.80
2019,04,25,09,12,8.80
2019,04,25,09,13,8.90
2019,04,25,09,14,8.90
2019,04,25,09,15,8.90
2019,04,25,09,16,9.00
2019,04,25,09,17,9.00
2019,04,25,09,18,9.10
2019,04,25,09,19,9.10
2019,04,25,09,20,9.10
2019,04,25,09,21,9.20
2019,04,25,09,22,9.20
2019,04,25,09,23,9.30
2019,04,25,09,24,9.30
2019,04,25,09,25,9.40
2019,04,25,09,26,9.50
2019,04,25,09,27,9.50
2019,04,25,09,28,9.60
2019,04,25,09,29,9.60
2019,04,25,09,30,9.70
2019,04,25,09,31,9.80
2019,04,25,09,32,9.80
2019,04,25,09,33,9.80
2019,04,25,09,34,9.90
2019,04,25,09,35,9.90
2019,04,25,09,36,10.00
2019,04,25,09,37,10.00
2019,04,25,09,38,10.10
2019,04,25,09,39,10.10
2019,04,25,09,40,10.10
2019,04,25,09,41,10.20
2019,04,25,09,42,10.20
2019,04,25,09,43,10.30
2019,04,25,09,44,10.30
2019,04,25,09,45,10.30
2019,04,25,09,46,10.40
2019,04,25,09,47,10.50
2019,04,25,09,48,10.50
2019,04,25,09,49,10.60
2019,04,25,09,50,10.60
2019,04,25,09,51,10.70
2019,04,25,09,52,10.70
2019,04,25,09,53,10.80
2019,04,25,09,54,10.80
2019,04,25,09,55,10.90
2019,04,25,09,56,10.90
2019,04,25,09,57,11.00
2019,04,25,09,58,11.10
2019,04,25,09,59,11.10
2019,04,25,10,00,11.10
2019,04,25,10,01,11.10
2019,04,25,10,02,11.10
2019,04,25,10,03,11.20
2019,04,25,10,04,11.20
2019,04,25,10,05,11.30
2019,04,25,10,06,11.30
2019,04,25,10,07,11.30
2019,04,25,10,08,11.40
2019,04,25,10,09,11.40
2019,04,25,10,10,11.50
2019,04,25,10,11,11.50
2019,04,25,10,12,11.50
2019,04,25,10,13,11.50
2019,04,25,10,14,11.40
2019,04,25,10,15,11.40
2019,04,25,10,16,11.40
2019,04,25,10,17,11.40
2019,04,25,10,18,11.40
2019,04,25,10,19,11.30
2019,04,25,10,20,11.30
2019,04,25,10,21,11.30
2019,04,25,10,22,11.30
2019,04,25,10,23,11.20
2019,04,25,10,24,11.20
2019,04,25,10,25,11.20
2019,04,25,10,26,11.20
2019,04,25,10,27,11.10
2019,04,25,10,28,11.10
2019,04,25,10,29,11.10
2019,04,25,10,30,11.10
2019,04,25,10,31,11.10
2019,04,25,10,32,11.20
2019,04,25,10,33,11.20
2019,04,25,10,34,11.30
2019,04,25,10,35,11.30
2019,04,25,10,36,11.40
2019,04,25,10,37,11.40
2019,04,25,10,38,11.50
2019,04,25,10,39,11.60
2019,04,25,10,40,11.60
2019,04,25,10,41,11.70
2019,04,25,10,42,11.70
2019,04,25,10,43,11.70
2019,04,25,10,44,11.70
2019,04,25,10,45,11.70
2019,04,25,10,46,11.70
2019,04,25,10,47,11.70
2019,04,25,10,48,11.70
2019,04,25,10,49,11.70
2019,04,25,10,50,11.70
2019,04,25,10,51,11.70
2019,04,25,10,52,11.80
2019,04,25,10,53,11.80
2019,04,25,10,54,11.80
2019,04,25,10,55,11.90
2019,04,25,10,56,11.90
2019,04,25,10,57,11.90
2019,04,25,10,58,11.90
2019,04,25,10,59,11.90
2019,04,25,11,00,12.00
2019,04,25,11,01,12.00
2019,04,25,11,02,12.00
2019,04,25,11,03,11.90
2019,04,25,11,04,11.90
2019,04,25,11,05,11.90
2019,04,25,11,06,11.90
2019,04,25,11,07,11.90
2019,04,25,11,08,12.00
2019,04,25,11,09,12.00
2019,04,25,11,10,12.00
2019,04,25,11,11,12.10
2019,04,25,11,12,12.10
2019,04,25,11,13,12.20
2019,04,25,11,14,12.20
2019,04,25,11,15,12.20
2019,04,25,11,16,12.30
2019,04,25,11,17,12.30
2019,04,25,11,18,12.40
2019,04,25,11,19,12.50
2019,04,25,11,20,12.50
2019,04,25,11,21,12.50
2019,04,25,11,22,12.60
2019,04,25,11,23,12.70
2019,04,25,11,24,12.70
2019,04,25,11,25,12.80
2019,04,25,11,26,12.80
2019,04,25,11,27,12.80
2019,04,25,11,28,12.80
2019,04,25,11,29,12.80
2019,04,25,11,30,12.90
2019,04,25,11,31,12.90
2019,04,25,11,32,13.00
2019,04,25,11,33,13.00
2019,04,25,11,34,13.10
2019,04,25,11,35,13.20
2019,04,25,11,36,13.20
2019,04,25,11,37,13.30
2019,04,25,11,38,13.30
2019,04,25,11,39,13.30
2019,04,25,11,40,13.30
2019,04,25,11,41,13.30
2019,04,25,11,42,13.30
2019,04,25,11,43,13.30
2019,04,25,11,44,13.30
2019,04,25,11,45,13.20
2019,04,25,11,46,13.20
2019,04,25,11,47,13.20
2019,04,25,11,48,13.20
2019,04,25,11,49,13.30
2019,04,25,11,50,13.30
2019,04,25,11,51,13.30
2019,04,25,11,52,13.30
2019,04,25,11,53,13.30
2019,04,25,11,54,13.40
2019,04,25,11,55,13.40
2019,04,25,11,56,13.30
2019,04,25,11,57,13.30
2019,04,25,11,58,13.30
2019,04,25,11,59,13.30
2019,04,25,12,00,13.30
2019,04,25,12,01,13.30
2019,04,25,12,02,13.40
2019,04,25,12,03,13.40
2019,04,25,12,04,13.40
2019,04,25,12,05,13.40
2019,04,25,12,06,13.40
2019,04,25,12,07,13.40
2019,04,25,12,08,13.50
2019,04,25,12,09,13.50
2019,04,25,12,10,13.50
2019,04,25,12,11,13.60
2019,04,25,12,12,13.60
2019,04,25,12,13,13.60
2019,04,25,12,14,13.60
2019,04,25,12,15,13.60
2019,04,25,12,16,13.60
2019,04,25,12,17,13.60
2019,04,25,12,18,13.70
2019,04,25,12,19,13.70
2019,04,25,12,20,13.70
2019,04,25,12,21,13.70
2019,04,25,12,22,13.80
2019,04,25,12,23,13.80
2019,04,25,12,24,13.80
2019,04,25,12,25,13.90
2019,04,25,12,26,13.90
2019,04,25,12,27,13.90
2019,04,25,12,28,13.90
2019,04,25,12,29,14.00
2019,04,25,12,30,14.00
2019,04,25,12,31,14.00
2019,04,25,12,32,14.10
2019,04,25,12,33,14.10
2019,04,25,12,34,14.00
2019,04,25,12,35,14.00
2019,04,25,12,36,14.10
2019,04,25,12,37,14.10
2019,04,25,12,38,14.10
2019,04,25,12,39,14.00
2019,04,25,12,40,14.00
2019,04,25,12,41,14.00
2019,04,25,12,42,14.00
2019,04,25,12,43,14.00
2019,04,25,12,44,14.10
2019,04,25,12,45,14.10
2019,04,25,12,46,14.10
2019,04,25,12,47,14.10
2019,04,25,12,48,14.10
2019,04,25,12,49,14.10
2019,04,25,12,50,14.20
2019,04,25,12,51,14.20
2019,04,25,12,52,14.20
2019,04,25,12,53,14.20
2019,04,25,12,54,14.10
2019,04,25,12,55,14.10
2019,04,25,12,56,14.00
2019,04,25,12,57,13.90
2019,04,25,12,58,13.80
2019,04,25,12,59,13.70
2019,04,25,13,00,13.60
2019,04,25,13,01,13.50
2019,04,25,13,02,13.40
2019,04,25,13,03,13.30
2019,04,25,13,04,13.20
2019,04,25,13,05,13.10
2019,04,25,13,06,13.10
2019,04,25,13,07,13.10
2019,04,25,13,08,13.20
2019,04,25,13,09,13.20
2019,04,25,13,10,13.20
2019,04,25,13,11,13.30
2019,04,25,13,12,13.30
2019,04,25,13,13,13.20
2019,04,25,13,14,13.20
2019,04,25,13,15,13.10
2019,04,25,13,16,13.10
2019,04,25,13,17,13.10
2019,04,25,13,18,13.10
2019,04,25,13,19,13.10
2019,04,25,13,20,13.10
2019,04,25,13,21,13.10
2019,04,25,13,22,13.10
2019,04,25,13,23,13.10
2019,04,25,13,24,13.10
2019,04,25,13,25,13.20
2019,04,25,13,26,13.20
2019,04,25,13,27,13.30
2019,04,25,13,28,13.30
2019,04,25,13,29,13.30
2019,04,25,13,30,13.30
2019,04,25,13,31,13.30
2019,04,25,13,32,13.30
2019,04,25,13,33,13.30
2019,04,25,13,34,13.30
2019,04,25,13,35,13.30
2019,04,25,13,36,13.30
2019,04,25,13,37,13.30
2019,04,25,13,38,13.30
2019,04,25,13,39,13.30
2019,04,25,13,40,13.20
2019,04,25,13,41,13.20
2019,04,25,13,42,13.20
2019,04,25,13,43,13.20
2019,04,25,13,44,13.10
2019,04,25,13,45,13.10
2019,04,25,13,46,13.10
2019,04,25,13,47,13.10
2019,04,25,13,48,13.10
2019,04,25,13,49,13.00
2019,04,25,13,50,13.00
2019,04,25,13,51,13.00
2019,04,25,13,52,13.00
2019,04,25,13,53,13.00
2019,04,25,13,54,13.10
2019,04,25,13,55,13.10
2019,04,25,13,56,13.10
2019,04,25,13,57,13.10
2019,04,25,13,58,13.00
2019,04,25,13,59,13.00
2019,04,25,14,00,13.00
2019,04,25,14,01,13.00
2019,04,25,14,02,13.00
2019,04,25,14,03,13.00
2019,04,25,14,04,13.00
2019,04,25,14,05,12.90
2019,04,25,14,06,12.90
2019,04,25,14,07,12.80
2019,04,25,14,08,12.80
2019,04,25,14,09,12.70
2019,04,25,14,10,12.70
2019,04,25,14,11,12.60
2019,04,25,14,12,12.60
2019,04,25,14,13,12.50
2019,04,25,14,14,12.50
2019,04,25,14,15,12.50
2019,04,25,14,16,12.50
2019,04,25,14,17,12.50
2019,04,25,14,18,12.50
2019,04,25,14,19,12.50
2019,04,25,14,20,12.50
2019,04,25,14,21,12.50
2019,04,25,14,22,12.50
2019,04,25,14,23,12.50
2019,04,25,14,24,12.60
2019,04,25,14,25,12.60
2019,04,25,14,26,12.50
2019,04,25,14,27,12.50
2019,04,25,14,28,12.50
2019,04,25,14,29,12.50
2019,04,25,14,30,12.50
2019,04,25,14,31,12.50
2019,04,25,14,32,12.60
2019,04,25,14,33,12.60
2019,04,25,14,34,12.60
2019,04,25,14,35,12.60
2019,04,25,14,36,12.60
2019,04,25,14,37,12.70
2019,04,25,14,38,12.70
2019,04,25,14,39,12.80
2019,04,25,14,40,12.80
2019,04,25,14,41,12.80
2019,04,25,14,42,12.90
2019,04,25,14,43,12.90
2019,04,25,14,44,12.90
2019,04,25,14,45,12.90
2019,04,25,14,46,12.80
2019,04,25,14,47,12.80
2019,04,25,14,48,12.70
2019,04,25,14,49,12.70
2019,04,25,14,50,12.60
2019,04,25,14,51,12.60
2019,04,25,14,52,12.60
2019,04,25,14,53,12.50
2019,04,25,14,54,12.50
2019,04,25,14,55,12.50
2019,04,25,14,56,12.50
2019,04,25,14,57,12.50
2019,04,25,14,58,12.50
2019,04,25,14,59,12.60
2019,04,25,15,00,12.60
2019,04,25,15,01,12.70
2019,04,25,15,02,12.70
2019,04,25,15,03,12.70
2019,04,25,15,04,12.70
2019,04,25,15,05,12.70
2019,04,25,15,06,12.60
2019,04,25,15,07,12.60
2019,04,25,15,08,12.60
2019,04,25,15,09,12.60
2019,04,25,15,10,12.60
2019,04,25,15,11,12.60
2019,04,25,15,12,12.60
2019,04,25,15,13,12.60
2019,04,25,15,14,12.60
2019,04,25,15,15,12.60
2019,04,25,15,16,12.70
2019,04,25,15,17,12.70
2019,04,25,15,18,12.70
2019,04,25,15,19,12.70
2019,04,25,15,20,12.70
2019,04,25,15,21,12.80
2019,04,25,15,22,12.80
2019,04,25,15,23,12.80
2019,04,25,15,24,12.80
2019,04,25,15,25,12.80
2019,04,25,15,26,12.90
2019,04,25,15,27,12.90
2019,04,25,15,28,12.90
2019,04,25,15,29,13.00
2019,04,25,15,30,13.00
2019,04,25,15,31,13.10
2019,04,25,15,32,13.00
2019,04,25,15,33,13.00
2019,04,25,15,34,13.00
2019,04,25,15,35,12.90
2019,04,25,15,36,12.90
2019,04,25,15,37,13.00
2019,04,25,15,38,13.00
2019,04,25,15,39,13.00
2019,04,25,15,40,13.10
2019,04,25,15,41,13.10
2019,04,25,15,42,13.10
2019,04,25,15,43,13.10
2019,04,25,15,44,13.00
2019,04,25,15,45,13.00
2019,04,25,15,46,13.00
2019,04,25,15,47,13.00
2019,04,25,15,48,12.90
2019,04,25,15,49,12.90
2019,04,25,15,50,12.90
2019,04,25,15,51,12.90
2019,04,25,15,52,12.90
2019,04,25,15,53,12.90
2019,04,25,15,54,12.90
2019,04,25,15,55,12.90
2019,04,25,15,56,12.90
2019,04,25,15,57,12.90
2019,04,25,15,58,12.90
2019,04,25,15,59,12.90
2019,04,25,16,00,12.90
2019,04,25,16,01,12.90
2019,04,25,16,02,12.90
2019,04,25,16,03,12.90
2019,04,25,16,04,13.00
2019,04,25,16,05,13.00
2019,04,25,16,06,13.00
2019,04,25,16,07,13.00
2019,04,25,16,08,13.00
2019,04,25,16,09,13.00
2019,04,25,16,10,13.00
2019,04,25,16,11,13.00
2019,04,25,16,12,13.00
2019,04,25,16,13,13.00
2019,04,25,16,14,13.00
2019,04,25,16,15,13.00
2019,04,25,16,16,13.00
2019,04,25,16,17,13.00
2019,04,25,16,18,13.00
2019,04,25,16,19,13.10
2019,04,25,16,20,13.10
2019,04,25,16,21,13.10
2019,04,25,16,22,13.10
2019,04,25,16,23,13.10
2019,04,25,16,24,13.10
2019,04,25,16,25,13.10
2019,04,25,16,26,13.10
2019,04,25,16,27,13.20
2019,04,25,16,28,13.20
2019,04,25,16,29,13.20
2019,04,25,16,30,13.30
2019,04,25,16,31,13.30
2019,04,25,16,32,13.30
2019,04,25,16,33,13.30
2019,04,25,16,34,13.40
2019,04,25,16,35,13.40
2019,04,25,16,36,13.40
2019,04,25,16,37,13.40
2019,04,25,16,38,13.40
2019,04,25,16,39,13.40
2019,04,25,16,40,13.40
2019,04,25,16,41,13.40
2019,04,25,16,42,13.40
2019,04,25,16,43,13.40
2019,04,25,16,44,13.40
2019,04,25,16,45,13.40
2019,04,25,16,46,13.40
2019,04,25,16,47,13.40
2019,04,25,16,48,13.40
2019,04,25,16,49,13.40
2019,04,25,16,50,13.40
2019,04,25,16,51,13.40
2019,04,25,16,52,13.40
2019,04,25,16,53,13.30
2019,04,25,16,54,13.30
2019,04,25,16,55,13.20
2019,04,25,16,56,13.20
2019,04,25,16,57,13.20
2019,04,25,16,58,13.20
2019,04,25,16,59,13.30
2019,04,25,17,00,13.30
2019,04,25,17,01,13.30
2019,04,25,17,02,13.20
2019,04,25,17,03,13.20
2019,04,25,17,04,13.20
2019,04,25,17,05,13.20
2019,04,25,17,06,13.20
2019,04,25,17,07,13.20
2019,04,25,17,08,13.20
2019,04,25,17,09,13.20
2019,04,25,17,10,13.20
2019,04,25,17,11,13.20
2019,04,25,17,12,13.20
2019,04,25,17,13,13.10
2019,04,25,17,14,13.10
2019,04,25,17,15,13.10
2019,04,25,17,16,13.10
2019,04,25,17,17,13.10
2019,04,25,17,18,13.10
2019,04,25,17,19,13.10
2019,04,25,17,20,13.10
2019,04,25,17,21,13.10
2019,04,25,17,22,13.10
2019,04,25,17,23,13.00
2019,04,25,17,24,13.00
2019,04,25,17,25,13.00
2019,04,25,17,26,12.90
2019,04,25,17,27,12.90
2019,04,25,17,28,12.90
2019,04,25,17,29,12.90
2019,04,25,17,30,12.90
2019,04,25,17,31,12.80
2019,04,25,17,32,12.80
2019,04,25,17,33,12.80
2019,04,25,17,34,12.80
2019,04,25,17,35,12.80
2019,04,25,17,36,12.80
2019,04,25,17,37,12.80
2019,04,25,17,38,12.80
2019,04,25,17,39,12.80
2019,04,25,17,40,12.70
2019,04,25,17,41,12.70
2019,04,25,17,42,12.70
2019,04,25,17,43,12.70
2019,04,25,17,44,12.70